Date;H [cm]
01.01.1949;122
02.01.1949;119
03.01.1949;133
04.01.1949;129
05.01.1949;126
06.01.1949;126
07.01.1949;124
08.01.1949;125
09.01.1949;144
10.01.1949;133
11.01.1949;131
12.01.1949;127
13.01.1949;130
14.01.1949;136
15.01.1949;127
16.01.1949;118
17.01.1949;126
18.01.1949;130
19.01.1949;127
20.01.1949;130
21.01.1949;130
22.01.1949;109
23.01.1949;126
24.01.1949;132
25.01.1949;130
26.01.1949;124
27.01.1949;120
28.01.1949;122
29.01.1949;128
30.01.1949;126
31.01.1949;127
01.02.1949;140
02.02.1949;132
03.02.1949;139
04.02.1949;132
05.02.1949;124
06.02.1949;122
07.02.1949;130
08.02.1949;132
09.02.1949;128
10.02.1949;126
11.02.1949;123
12.02.1949;116
13.02.1949;112
14.02.1949;119
15.02.1949;120
16.02.1949;124
17.02.1949;122
18.02.1949;182
19.02.1949;159
20.02.1949;153
21.02.1949;141
22.02.1949;160
23.02.1949;224
24.02.1949;237
25.02.1949;179
26.02.1949;158
27.02.1949;148
28.02.1949;146
01.03.1949;135
02.03.1949;130
03.03.1949;120
04.03.1949;126
05.03.1949;122
06.03.1949;123
07.03.1949;121
08.03.1949;120
09.03.1949;120
10.03.1949;118
11.03.1949;116
12.03.1949;116
13.03.1949;114
14.03.1949;112
15.03.1949;118
16.03.1949;118
17.03.1949;116
18.03.1949;117
19.03.1949;110
20.03.1949;111
21.03.1949;116
22.03.1949;114
23.03.1949;113
24.03.1949;112
25.03.1949;114
26.03.1949;139
27.03.1949;152
28.03.1949;162
29.03.1949;150
30.03.1949;188
31.03.1949;202
01.04.1949;214
02.04.1949;199
03.04.1949;180
04.04.1949;186
05.04.1949;204
06.04.1949;266
07.04.1949;299
08.04.1949;250
09.04.1949;307
10.04.1949;302
11.04.1949;263
12.04.1949;234
13.04.1949;210
14.04.1949;190
15.04.1949;188
16.04.1949;164
17.04.1949;162
18.04.1949;160
19.04.1949;164
20.04.1949;159
21.04.1949;158
22.04.1949;161
23.04.1949;156
24.04.1949;155
25.04.1949;156
26.04.1949;154
27.04.1949;142
28.04.1949;140
29.04.1949;136
30.04.1949;133
01.05.1949;132
02.05.1949;132
03.05.1949;118
04.05.1949;108
05.05.1949;117
06.05.1949;126
07.05.1949;116
08.05.1949;117
09.05.1949;112
10.05.1949;106
11.05.1949;114
12.05.1949;110
13.05.1949;111
14.05.1949;110
15.05.1949;114
16.05.1949;110
17.05.1949;112
18.05.1949;106
19.05.1949;124
20.05.1949;112
21.05.1949;107
22.05.1949;106
23.05.1949;108
24.05.1949;108
25.05.1949;108
26.05.1949;106
27.05.1949;105
28.05.1949;105
29.05.1949;105
30.05.1949;110
31.05.1949;102
01.06.1949;110
02.06.1949;108
03.06.1949;112
04.06.1949;104
05.06.1949;104
06.06.1949;106
07.06.1949;102
08.06.1949;102
09.06.1949;104
10.06.1949;103
11.06.1949;104
12.06.1949;105
13.06.1949;115
14.06.1949;112
15.06.1949;109
16.06.1949;110
17.06.1949;151
18.06.1949;202
19.06.1949;223
20.06.1949;234
21.06.1949;196
22.06.1949;190
23.06.1949;166
24.06.1949;143
25.06.1949;140
26.06.1949;134
27.06.1949;130
28.06.1949;125
29.06.1949;124
30.06.1949;132
01.07.1949;130
02.07.1949;120
03.07.1949;128
04.07.1949;120
05.07.1949;118
06.07.1949;116
07.07.1949;118
08.07.1949;153
09.07.1949;162
10.07.1949;138
11.07.1949;130
12.07.1949;124
13.07.1949;126
14.07.1949;122
15.07.1949;116
16.07.1949;114
17.07.1949;114
18.07.1949;109
19.07.1949;112
20.07.1949;106
21.07.1949;114
22.07.1949;110
23.07.1949;109
24.07.1949;114
25.07.1949;109
26.07.1949;108
27.07.1949;107
28.07.1949;110
29.07.1949;118
30.07.1949;118
31.07.1949;117
01.08.1949;112
02.08.1949;122
03.08.1949;126
04.08.1949;133
05.08.1949;149
06.08.1949;176
07.08.1949;158
08.08.1949;161
09.08.1949;145
10.08.1949;126
11.08.1949;134
12.08.1949;136
13.08.1949;131
14.08.1949;132
15.08.1949;124
16.08.1949;106
17.08.1949;105
18.08.1949;103
19.08.1949;114
20.08.1949;109
21.08.1949;117
22.08.1949;115
23.08.1949;136
24.08.1949;137
25.08.1949;142
26.08.1949;138
27.08.1949;124
28.08.1949;127
29.08.1949;124
30.08.1949;125
31.08.1949;119
01.09.1949;118
02.09.1949;120
03.09.1949;116
04.09.1949;117
05.09.1949;126
06.09.1949;109
07.09.1949;122
08.09.1949;112
09.09.1949;108
10.09.1949;106
11.09.1949;106
12.09.1949;111
13.09.1949;104
14.09.1949;108
15.09.1949;107
16.09.1949;106
17.09.1949;106
18.09.1949;110
19.09.1949;110
20.09.1949;110
21.09.1949;100
22.09.1949;102
23.09.1949;109
24.09.1949;100
25.09.1949;100
26.09.1949;104
27.09.1949;112
28.09.1949;117
29.09.1949;116
30.09.1949;111
01.10.1949;110
02.10.1949;104
03.10.1949;108
04.10.1949;120
05.10.1949;116
06.10.1949;126
07.10.1949;118
08.10.1949;113
09.10.1949;124
10.10.1949;116
11.10.1949;124
12.10.1949;122
13.10.1949;120
14.10.1949;124
15.10.1949;126
16.10.1949;108
17.10.1949;125
18.10.1949;123
19.10.1949;120
20.10.1949;114
21.10.1949;110
22.10.1949;114
23.10.1949;108
24.10.1949;116
25.10.1949;110
26.10.1949;123
27.10.1949;130
28.10.1949;137
29.10.1949;138
30.10.1949;116
31.10.1949;132
01.11.1949;122
02.11.1949;117
03.11.1949;115
04.11.1949;126
05.11.1949;114
06.11.1949;120
07.11.1949;122
08.11.1949;110
09.11.1949;116
10.11.1949;124
11.11.1949;120
12.11.1949;108
13.11.1949;116
14.11.1949;123
15.11.1949;126
16.11.1949;128
17.11.1949;127
18.11.1949;121
19.11.1949;124
20.11.1949;110
21.11.1949;124
22.11.1949;128
23.11.1949;126
24.11.1949;112
25.11.1949;118
26.11.1949;122
27.11.1949;112
28.11.1949;130
29.11.1949;129
30.11.1949;127
01.12.1949;130
02.12.1949;130
03.12.1949;120
04.12.1949;142
05.12.1949;131
06.12.1949;141
07.12.1949;140
08.12.1949;149
09.12.1949;151
10.12.1949;149
11.12.1949;168
12.12.1949;180
13.12.1949;177
14.12.1949;180
15.12.1949;175
16.12.1949;172
17.12.1949;154
18.12.1949;142
19.12.1949;148
20.12.1949;139
21.12.1949;141
22.12.1949;142
23.12.1949;142
24.12.1949;134
25.12.1949;134
26.12.1949;148
27.12.1949;136
28.12.1949;132
29.12.1949;132
30.12.1949;126
31.12.1949;110
01.01.1950;110
02.01.1950;119
03.01.1950;135
04.01.1950;126
05.01.1950;130
06.01.1950;124
07.01.1950;110
08.01.1950;114
09.01.1950;115
10.01.1950;123
11.01.1950;120
12.01.1950;122
13.01.1950;122
14.01.1950;124
15.01.1950;122
16.01.1950;126
17.01.1950;124
18.01.1950;129
19.01.1950;131
20.01.1950;130
21.01.1950;132
22.01.1950;133
23.01.1950;132
24.01.1950;128
25.01.1950;137
26.01.1950;128
27.01.1950;136
28.01.1950;133
29.01.1950;130
30.01.1950;131
31.01.1950;132
01.02.1950;136
02.02.1950;142
03.02.1950;140
04.02.1950;136
05.02.1950;137
06.02.1950;140
07.02.1950;138
08.02.1950;139
09.02.1950;138
10.02.1950;140
11.02.1950;138
12.02.1950;134
13.02.1950;136
14.02.1950;140
15.02.1950;130
16.02.1950;130
17.02.1950;130
18.02.1950;133
19.02.1950;132
20.02.1950;130
21.02.1950;140
22.02.1950;139
23.02.1950;137
24.02.1950;136
25.02.1950;128
26.02.1950;133
27.02.1950;136
28.02.1950;133
01.03.1950;128
02.03.1950;130
03.03.1950;130
04.03.1950;128
05.03.1950;124
06.03.1950;130
07.03.1950;128
08.03.1950;128
09.03.1950;126
10.03.1950;128
11.03.1950;128
12.03.1950;124
13.03.1950;128
14.03.1950;129
15.03.1950;126
16.03.1950;124
17.03.1950;122
18.03.1950;123
19.03.1950;122
20.03.1950;140
21.03.1950;171
22.03.1950;209
23.03.1950;204
24.03.1950;212
25.03.1950;214
26.03.1950;225
27.03.1950;209
28.03.1950;192
29.03.1950;166
30.03.1950;165
31.03.1950;160
01.04.1950;178
02.04.1950;186
03.04.1950;202
04.04.1950;211
05.04.1950;232
06.04.1950;178
07.04.1950;190
08.04.1950;142
09.04.1950;158
10.04.1950;142
11.04.1950;136
12.04.1950;149
13.04.1950;152
14.04.1950;130
15.04.1950;151
16.04.1950;140
17.04.1950;136
18.04.1950;137
19.04.1950;120
20.04.1950;140
21.04.1950;127
22.04.1950;124
23.04.1950;138
24.04.1950;164
25.04.1950;163
26.04.1950;177
27.04.1950;170
28.04.1950;186
29.04.1950;178
30.04.1950;216
01.05.1950;230
02.05.1950;223
03.05.1950;188
04.05.1950;152
05.05.1950;140
06.05.1950;152
07.05.1950;132
08.05.1950;124
09.05.1950;124
10.05.1950;111
11.05.1950;110
12.05.1950;112
13.05.1950;126
14.05.1950;124
15.05.1950;112
16.05.1950;114
17.05.1950;108
18.05.1950;108
19.05.1950;107
20.05.1950;110
21.05.1950;110
22.05.1950;110
23.05.1950;107
24.05.1950;106
25.05.1950;105
26.05.1950;106
27.05.1950;103
28.05.1950;103
29.05.1950;104
30.05.1950;107
31.05.1950;104
01.06.1950;104
02.06.1950;102
03.06.1950;103
04.06.1950;102
05.06.1950;112
06.06.1950;103
07.06.1950;102
08.06.1950;102
09.06.1950;102
10.06.1950;99
11.06.1950;100
12.06.1950;100
13.06.1950;101
14.06.1950;100
15.06.1950;101
16.06.1950;100
17.06.1950;101
18.06.1950;100
19.06.1950;100
20.06.1950;98
21.06.1950;98
22.06.1950;100
23.06.1950;98
24.06.1950;99
25.06.1950;100
26.06.1950;101
27.06.1950;102
28.06.1950;114
29.06.1950;104
30.06.1950;102
01.07.1950;101
02.07.1950;100
03.07.1950;101
04.07.1950;100
05.07.1950;104
06.07.1950;102
07.07.1950;103
08.07.1950;102
09.07.1950;100
10.07.1950;100
11.07.1950;101
12.07.1950;104
13.07.1950;104
14.07.1950;106
15.07.1950;104
16.07.1950;104
17.07.1950;100
18.07.1950;100
19.07.1950;102
20.07.1950;112
21.07.1950;114
22.07.1950;100
23.07.1950;100
24.07.1950;103
25.07.1950;102
26.07.1950;103
27.07.1950;102
28.07.1950;102
29.07.1950;100
30.07.1950;100
31.07.1950;100
01.08.1950;102
02.08.1950;100
03.08.1950;102
04.08.1950;108
05.08.1950;106
06.08.1950;104
07.08.1950;104
08.08.1950;106
09.08.1950;103
10.08.1950;104
11.08.1950;104
12.08.1950;106
13.08.1950;111
14.08.1950;104
15.08.1950;104
16.08.1950;104
17.08.1950;104
18.08.1950;104
19.08.1950;106
20.08.1950;107
21.08.1950;104
22.08.1950;104
23.08.1950;104
24.08.1950;108
25.08.1950;98
26.08.1950;99
27.08.1950;102
28.08.1950;103
29.08.1950;104
30.08.1950;103
31.08.1950;102
01.09.1950;102
02.09.1950;102
03.09.1950;101
04.09.1950;100
05.09.1950;104
06.09.1950;104
07.09.1950;101
08.09.1950;102
09.09.1950;102
10.09.1950;104
11.09.1950;105
12.09.1950;106
13.09.1950;108
14.09.1950;110
15.09.1950;111
16.09.1950;104
17.09.1950;100
18.09.1950;100
19.09.1950;110
20.09.1950;106
21.09.1950;108
22.09.1950;104
23.09.1950;113
24.09.1950;192
25.09.1950;198
26.09.1950;198
27.09.1950;194
28.09.1950;204
29.09.1950;214
30.09.1950;213
01.10.1950;184
02.10.1950;209
03.10.1950;183
04.10.1950;163
05.10.1950;154
06.10.1950;176
07.10.1950;172
08.10.1950;158
09.10.1950;161
10.10.1950;139
11.10.1950;138
12.10.1950;134
13.10.1950;153
14.10.1950;191
15.10.1950;140
16.10.1950;133
17.10.1950;138
18.10.1950;138
19.10.1950;134
20.10.1950;126
21.10.1950;130
22.10.1950;124
23.10.1950;122
24.10.1950;130
25.10.1950;127
26.10.1950;119
27.10.1950;130
28.10.1950;106
29.10.1950;128
30.10.1950;116
31.10.1950;114
01.11.1950;107
02.11.1950;105
03.11.1950;116
04.11.1950;115
05.11.1950;110
06.11.1950;104
07.11.1950;130
08.11.1950;117
09.11.1950;106
10.11.1950;106
11.11.1950;105
12.11.1950;138
13.11.1950;120
14.11.1950;240
15.11.1950;280
16.11.1950;257
17.11.1950;270
18.11.1950;232
19.11.1950;228
20.11.1950;181
21.11.1950;156
22.11.1950;160
23.11.1950;138
24.11.1950;148
25.11.1950;156
26.11.1950;138
27.11.1950;150
28.11.1950;152
29.11.1950;150
30.11.1950;172
01.12.1950;168
02.12.1950;184
03.12.1950;206
04.12.1950;216
05.12.1950;199
06.12.1950;194
07.12.1950;182
08.12.1950;177
09.12.1950;166
10.12.1950;160
11.12.1950;162
12.12.1950;163
13.12.1950;190
14.12.1950;183
15.12.1950;209
16.12.1950;159
17.12.1950;162
18.12.1950;162
19.12.1950;149
20.12.1950;150
21.12.1950;138
22.12.1950;139
23.12.1950;132
24.12.1950;126
25.12.1950;128
26.12.1950;130
27.12.1950;132
28.12.1950;130
29.12.1950;128
30.12.1950;130
31.12.1950;130
01.01.1951;130
02.01.1951;134
03.01.1951;126
04.01.1951;130
05.01.1951;136
06.01.1951;130
07.01.1951;128
08.01.1951;124
09.01.1951;126
10.01.1951;125
11.01.1951;124
12.01.1951;126
13.01.1951;122
14.01.1951;130
15.01.1951;134
16.01.1951;129
17.01.1951;130
18.01.1951;123
19.01.1951;120
20.01.1951;116
21.01.1951;118
22.01.1951;119
23.01.1951;119
24.01.1951;120
25.01.1951;120
26.01.1951;118
27.01.1951;118
28.01.1951;122
29.01.1951;118
30.01.1951;114
31.01.1951;122
01.02.1951;120
02.02.1951;120
03.02.1951;126
04.02.1951;123
05.02.1951;122
06.02.1951;122
07.02.1951;123
08.02.1951;128
09.02.1951;132
10.02.1951;131
11.02.1951;123
12.02.1951;136
13.02.1951;110
14.02.1951;118
15.02.1951;118
16.02.1951;118
17.02.1951;120
18.02.1951;122
19.02.1951;121
20.02.1951;118
21.02.1951;118
22.02.1951;118
23.02.1951;116
24.02.1951;118
25.02.1951;117
26.02.1951;118
27.02.1951;118
28.02.1951;123
01.03.1951;118
02.03.1951;117
03.03.1951;120
04.03.1951;119
05.03.1951;120
06.03.1951;117
07.03.1951;118
08.03.1951;118
09.03.1951;117
10.03.1951;120
11.03.1951;110
12.03.1951;114
13.03.1951;118
14.03.1951;122
15.03.1951;136
16.03.1951;127
17.03.1951;112
18.03.1951;124
19.03.1951;128
20.03.1951;128
21.03.1951;126
22.03.1951;118
23.03.1951;118
24.03.1951;114
25.03.1951;118
26.03.1951;118
27.03.1951;119
28.03.1951;125
29.03.1951;118
30.03.1951;115
31.03.1951;113
01.04.1951;126
02.04.1951;128
03.04.1951;128
04.04.1951;133
05.04.1951;151
06.04.1951;164
07.04.1951;208
08.04.1951;288
09.04.1951;395
10.04.1951;419
11.04.1951;382
12.04.1951;353
13.04.1951;312
14.04.1951;268
15.04.1951;250
16.04.1951;244
17.04.1951;218
18.04.1951;205
19.04.1951;189
20.04.1951;190
21.04.1951;196
22.04.1951;186
23.04.1951;156
24.04.1951;158
25.04.1951;150
26.04.1951;141
27.04.1951;152
28.04.1951;158
29.04.1951;146
30.04.1951;146
01.05.1951;136
02.05.1951;144
03.05.1951;164
04.05.1951;150
05.05.1951;154
06.05.1951;152
07.05.1951;116
08.05.1951;110
09.05.1951;111
10.05.1951;111
11.05.1951;108
12.05.1951;116
13.05.1951;129
14.05.1951;132
15.05.1951;118
16.05.1951;112
17.05.1951;116
18.05.1951;120
19.05.1951;128
20.05.1951;120
21.05.1951;114
22.05.1951;105
23.05.1951;110
24.05.1951;108
25.05.1951;106
26.05.1951;110
27.05.1951;113
28.05.1951;102
29.05.1951;107
30.05.1951;112
31.05.1951;107
01.06.1951;115
02.06.1951;114
03.06.1951;116
04.06.1951;108
05.06.1951;106
06.06.1951;110
07.06.1951;116
08.06.1951;122
09.06.1951;128
10.06.1951;126
11.06.1951;122
12.06.1951;120
13.06.1951;124
14.06.1951;122
15.06.1951;122
16.06.1951;117
17.06.1951;110
18.06.1951;108
19.06.1951;116
20.06.1951;110
21.06.1951;112
22.06.1951;108
23.06.1951;112
24.06.1951;106
25.06.1951;110
26.06.1951;116
27.06.1951;114
28.06.1951;108
29.06.1951;108
30.06.1951;106
01.07.1951;114
02.07.1951;119
03.07.1951;120
04.07.1951;121
05.07.1951;139
06.07.1951;126
07.07.1951;146
08.07.1951;151
09.07.1951;139
10.07.1951;130
11.07.1951;125
12.07.1951;150
13.07.1951;142
14.07.1951;135
15.07.1951;128
16.07.1951;122
17.07.1951;115
18.07.1951;120
19.07.1951;116
20.07.1951;122
21.07.1951;138
22.07.1951;138
23.07.1951;128
24.07.1951;132
25.07.1951;130
26.07.1951;110
27.07.1951;122
28.07.1951;122
29.07.1951;124
30.07.1951;113
31.07.1951;108
01.08.1951;116
02.08.1951;116
03.08.1951;109
04.08.1951;108
05.08.1951;111
06.08.1951;108
07.08.1951;102
08.08.1951;104
09.08.1951;108
10.08.1951;106
11.08.1951;106
12.08.1951;105
13.08.1951;106
14.08.1951;106
15.08.1951;106
16.08.1951;105
17.08.1951;108
18.08.1951;106
19.08.1951;106
20.08.1951;106
21.08.1951;104
22.08.1951;106
23.08.1951;108
24.08.1951;108
25.08.1951;108
26.08.1951;106
27.08.1951;108
28.08.1951;113
29.08.1951;106
30.08.1951;106
31.08.1951;103
01.09.1951;102
02.09.1951;106
03.09.1951;106
04.09.1951;107
05.09.1951;106
06.09.1951;104
07.09.1951;102
08.09.1951;104
09.09.1951;104
10.09.1951;106
11.09.1951;106
12.09.1951;106
13.09.1951;106
14.09.1951;106
15.09.1951;106
16.09.1951;107
17.09.1951;108
18.09.1951;107
19.09.1951;106
20.09.1951;107
21.09.1951;107
22.09.1951;106
23.09.1951;106
24.09.1951;106
25.09.1951;108
26.09.1951;108
27.09.1951;104
28.09.1951;106
29.09.1951;106
30.09.1951;106
01.10.1951;105
02.10.1951;106
03.10.1951;107
04.10.1951;106
05.10.1951;106
06.10.1951;106
07.10.1951;105
08.10.1951;104
09.10.1951;108
10.10.1951;108
11.10.1951;104
12.10.1951;106
13.10.1951;102
14.10.1951;102
15.10.1951;104
16.10.1951;101
17.10.1951;101
18.10.1951;102
19.10.1951;102
20.10.1951;102
21.10.1951;102
22.10.1951;104
23.10.1951;106
24.10.1951;106
25.10.1951;106
26.10.1951;104
27.10.1951;103
28.10.1951;105
29.10.1951;106
30.10.1951;105
31.10.1951;105
01.11.1951;101
02.11.1951;106
03.11.1951;104
04.11.1951;103
05.11.1951;102
06.11.1951;102
07.11.1951;102
08.11.1951;103
09.11.1951;104
10.11.1951;104
11.11.1951;103
12.11.1951;103
13.11.1951;102
14.11.1951;102
15.11.1951;102
16.11.1951;103
17.11.1951;103
18.11.1951;100
19.11.1951;102
20.11.1951;106
21.11.1951;106
22.11.1951;108
23.11.1951;104
24.11.1951;102
25.11.1951;103
26.11.1951;107
27.11.1951;114
28.11.1951;107
29.11.1951;127
30.11.1951;125
01.12.1951;121
02.12.1951;107
03.12.1951;116
04.12.1951;106
05.12.1951;103
06.12.1951;105
07.12.1951;108
08.12.1951;106
09.12.1951;107
10.12.1951;107
11.12.1951;140
12.12.1951;114
13.12.1951;108
14.12.1951;106
15.12.1951;107
16.12.1951;125
17.12.1951;130
18.12.1951;118
19.12.1951;106
20.12.1951;106
21.12.1951;112
22.12.1951;104
23.12.1951;104
24.12.1951;112
25.12.1951;117
26.12.1951;105
27.12.1951;109
28.12.1951;108
29.12.1951;108
30.12.1951;117
31.12.1951;116
01.01.1952;117
02.01.1952;108
03.01.1952;105
04.01.1952;104
05.01.1952;104
06.01.1952;112
07.01.1952;106
08.01.1952;112
09.01.1952;108
10.01.1952;134
11.01.1952;120
12.01.1952;122
13.01.1952;120
14.01.1952;112
15.01.1952;113
16.01.1952;110
17.01.1952;114
18.01.1952;114
19.01.1952;116
20.01.1952;120
21.01.1952;112
22.01.1952;112
23.01.1952;108
24.01.1952;107
25.01.1952;106
26.01.1952;105
27.01.1952;104
28.01.1952;104
29.01.1952;106
30.01.1952;104
31.01.1952;103
01.02.1952;104
02.02.1952;104
03.02.1952;104
04.02.1952;105
05.02.1952;106
06.02.1952;106
07.02.1952;105
08.02.1952;104
09.02.1952;105
10.02.1952;102
11.02.1952;103
12.02.1952;103
13.02.1952;104
14.02.1952;104
15.02.1952;105
16.02.1952;102
17.02.1952;102
18.02.1952;103
19.02.1952;103
20.02.1952;103
21.02.1952;102
22.02.1952;103
23.02.1952;102
24.02.1952;104
25.02.1952;104
26.02.1952;104
27.02.1952;106
28.02.1952;105
29.02.1952;105
01.03.1952;104
02.03.1952;104
03.03.1952;104
04.03.1952;104
05.03.1952;102
06.03.1952;103
07.03.1952;104
08.03.1952;103
09.03.1952;106
10.03.1952;110
11.03.1952;114
12.03.1952;116
13.03.1952;112
14.03.1952;108
15.03.1952;107
16.03.1952;112
17.03.1952;112
18.03.1952;110
19.03.1952;108
20.03.1952;106
21.03.1952;108
22.03.1952;107
23.03.1952;110
24.03.1952;112
25.03.1952;112
26.03.1952;117
27.03.1952;114
28.03.1952;115
29.03.1952;116
30.03.1952;116
31.03.1952;118
01.04.1952;120
02.04.1952;120
03.04.1952;124
04.04.1952;122
05.04.1952;117
06.04.1952;115
07.04.1952;124
08.04.1952;130
09.04.1952;146
10.04.1952;149
11.04.1952;185
12.04.1952;215
13.04.1952;228
14.04.1952;224
15.04.1952;206
16.04.1952;185
17.04.1952;165
18.04.1952;152
19.04.1952;148
20.04.1952;129
21.04.1952;133
22.04.1952;134
23.04.1952;130
24.04.1952;138
25.04.1952;134
26.04.1952;150
27.04.1952;155
28.04.1952;138
29.04.1952;128
30.04.1952;145
01.05.1952;129
02.05.1952;121
03.05.1952;152
04.05.1952;162
05.05.1952;174
06.05.1952;144
07.05.1952;128
08.05.1952;120
09.05.1952;123
10.05.1952;113
11.05.1952;110
12.05.1952;116
13.05.1952;106
14.05.1952;108
15.05.1952;109
16.05.1952;114
17.05.1952;116
18.05.1952;109
19.05.1952;114
20.05.1952;116
21.05.1952;114
22.05.1952;115
23.05.1952;114
24.05.1952;116
25.05.1952;126
26.05.1952;110
27.05.1952;115
28.05.1952;114
29.05.1952;110
30.05.1952;108
31.05.1952;118
01.06.1952;123
02.06.1952;120
03.06.1952;111
04.06.1952;110
05.06.1952;109
06.06.1952;112
07.06.1952;116
08.06.1952;109
09.06.1952;112
10.06.1952;111
11.06.1952;111
12.06.1952;108
13.06.1952;110
14.06.1952;111
15.06.1952;114
16.06.1952;110
17.06.1952;112
18.06.1952;114
19.06.1952;114
20.06.1952;110
21.06.1952;114
22.06.1952;113
23.06.1952;110
24.06.1952;114
25.06.1952;112
26.06.1952;109
27.06.1952;107
28.06.1952;108
29.06.1952;110
30.06.1952;112
01.07.1952;114
02.07.1952;118
03.07.1952;110
04.07.1952;114
05.07.1952;108
06.07.1952;107
07.07.1952;111
08.07.1952;108
09.07.1952;110
10.07.1952;110
11.07.1952;112
12.07.1952;126
13.07.1952;131
14.07.1952;116
15.07.1952;110
16.07.1952;112
17.07.1952;114
18.07.1952;116
19.07.1952;109
20.07.1952;108
21.07.1952;114
22.07.1952;115
23.07.1952;112
24.07.1952;114
25.07.1952;116
26.07.1952;112
27.07.1952;112
28.07.1952;126
29.07.1952;118
30.07.1952;112
31.07.1952;118
01.08.1952;114
02.08.1952;116
03.08.1952;113
04.08.1952;116
05.08.1952;116
06.08.1952;116
07.08.1952;116
08.08.1952;116
09.08.1952;116
10.08.1952;118
11.08.1952;120
12.08.1952;119
13.08.1952;117
14.08.1952;118
15.08.1952;117
16.08.1952;118
17.08.1952;115
18.08.1952;118
19.08.1952;122
20.08.1952;120
21.08.1952;116
22.08.1952;120
23.08.1952;118
24.08.1952;118
25.08.1952;116
26.08.1952;115
27.08.1952;120
28.08.1952;119
29.08.1952;117
30.08.1952;116
31.08.1952;114
01.09.1952;116
02.09.1952;118
03.09.1952;117
04.09.1952;122
05.09.1952;116
06.09.1952;114
07.09.1952;118
08.09.1952;120
09.09.1952;124
10.09.1952;122
11.09.1952;127
12.09.1952;129
13.09.1952;122
14.09.1952;122
15.09.1952;122
16.09.1952;126
17.09.1952;125
18.09.1952;125
19.09.1952;123
20.09.1952;122
21.09.1952;123
22.09.1952;119
23.09.1952;117
24.09.1952;118
25.09.1952;117
26.09.1952;120
27.09.1952;123
28.09.1952;149
29.09.1952;136
30.09.1952;162
01.10.1952;156
02.10.1952;182
03.10.1952;174
04.10.1952;144
05.10.1952;166
06.10.1952;148
07.10.1952;164
08.10.1952;170
09.10.1952;170
10.10.1952;174
11.10.1952;176
12.10.1952;174
13.10.1952;168
14.10.1952;166
15.10.1952;182
16.10.1952;190
17.10.1952;183
18.10.1952;144
19.10.1952;176
20.10.1952;145
21.10.1952;179
22.10.1952;171
23.10.1952;142
24.10.1952;172
25.10.1952;141
26.10.1952;158
27.10.1952;176
28.10.1952;179
29.10.1952;177
30.10.1952;194
31.10.1952;230
01.11.1952;231
02.11.1952;228
03.11.1952;197
04.11.1952;168
05.11.1952;153
06.11.1952;166
07.11.1952;185
08.11.1952;193
09.11.1952;188
10.11.1952;202
11.11.1952;190
12.11.1952;190
13.11.1952;187
14.11.1952;158
15.11.1952;189
16.11.1952;151
17.11.1952;168
18.11.1952;127
19.11.1952;144
20.11.1952;128
21.11.1952;140
22.11.1952;131
23.11.1952;145
24.11.1952;134
25.11.1952;125
26.11.1952;142
27.11.1952;128
28.11.1952;130
29.11.1952;140
30.11.1952;132
01.12.1952;129
02.12.1952;127
03.12.1952;126
04.12.1952;129
05.12.1952;126
06.12.1952;131
07.12.1952;128
08.12.1952;125
09.12.1952;123
10.12.1952;127
11.12.1952;125
12.12.1952;125
13.12.1952;128
14.12.1952;128
15.12.1952;139
16.12.1952;139
17.12.1952;137
18.12.1952;141
19.12.1952;133
20.12.1952;133
21.12.1952;127
22.12.1952;133
23.12.1952;132
24.12.1952;131
25.12.1952;129
26.12.1952;127
27.12.1952;129
28.12.1952;132
29.12.1952;130
30.12.1952;130
31.12.1952;126
01.01.1953;126
02.01.1953;133
03.01.1953;140
04.01.1953;141
05.01.1953;137
06.01.1953;146
07.01.1953;148
08.01.1953;139
09.01.1953;149
10.01.1953;150
11.01.1953;137
12.01.1953;140
13.01.1953;138
14.01.1953;135
15.01.1953;138
16.01.1953;133
17.01.1953;134
18.01.1953;128
19.01.1953;145
20.01.1953;150
21.01.1953;142
22.01.1953;139
23.01.1953;137
24.01.1953;129
25.01.1953;129
26.01.1953;139
27.01.1953;136
28.01.1953;134
29.01.1953;135
30.01.1953;135
31.01.1953;133
01.02.1953;136
02.02.1953;134
03.02.1953;134
04.02.1953;134
05.02.1953;132
06.02.1953;132
07.02.1953;138